Temperature
28 29 29 29 28 28 27 27 26 26 26 25 24 24 23 22 21 21 20 19 17 16 15 14 14 13 12 12 11 11 10 10 10 9 9 9 9 9 9 9 9 9 9 9
28 28 28 28 28 28 28 27 27 26 26 25 24 23 22 22 21 20 19 18 16 15 14 14 13 12 12 11 10 10 9 9 9 9 9 8 8 8 8 8 8 8 8 8
26 28 28 27 28 28 27 27 27 25 25 25 24 23 22 21 20 19 18 17 16 15 14 13 12 12 11 10 10 9 9 9 9 8 8 8 8 8 8 8 8 8 8 8
27 27 25 27 29 28 27 27 27 26 25 24 23 22 21 19 18 17 17 15 15 14 13 13 12 11 10 10 9 9 9 8 8 8 8 7 7 7 7 7 7 7 7 7
26 26 26 27 27 27 26 25 26 25 24 24 23 22 21 19 18 17 16 15 14 13 13 12 11 10 10 9 9 9 8 8 8 7 7 7 7 7 7 7 7 7 7 7
26 25 25 27 27 27 26 24 24 24 23 23 22 21 21 19 17 16 15 14 13 13 12 11 10 10 9 9 8 8 8 7 7 7 7 7 7 7 7 7 7 7 7 7
25 25 26 27 27 27 25 23 23 23 23 22 21 20 19 18 17 16 15 14 13 12 11 11 10 9 9 8 8 7 7 7 7 7 7 7 7 7 7 7 7 6 6 7
26 25 25 27 27 25 23 23 23 23 22 21 20 20 19 17 16 15 14 13 13 12 11 10 9 9 8 8 7 7 7 7 7 7 7 7 7 7 7 7 6 6 6 6
27 26 26 26 26 25 24 23 23 22 21 21 20 19 18 17 15 15 14 13 12 11 11 10 9 9 8 8 7 7 7 7 7 7 7 7 7 7 7 7 6 6 6 6
26 27 27 26 26 25 24 23 23 22 21 20 19 18 17 16 15 14 13 12 12 11 10 9 9 8 8 7 7 7 7 7 7 7 7 7 7 7 7 7 6 6 6 6
26 27 27 26 26 25 24 23 22 22 21 20 19 18 17 16 15 14 13 12 11 10 10 9 8 8 8 7 7 7 7 7 7 7 7 7 7 7 7 7 6 6 6 6
26 27 26 26 25 24 24 23 22 21 20 19 18 17 16 15 14 13 12 12 11 10 9 9 8 8 7 7 7 7 6 7 7 7 7 7 7 7 7 7 7 6 6 6
27 26 26 26 25 24 23 23 22 21 20 19 18 17 16 15 14 13 12 12 11 10 9 8 8 8 7 7 7 7 7 7 7 7 7 7 7 7 7 7 7 7 6 6
26 25 25 25 24 24 23 22 22 21 20 19 18 17 16 15 14 13 12 11 10 9 9 8 8 7 7 7 7 7 7 7 7 7 7 7 7 7 7 7 7 7 7 6
26 25 25 24 24 23 23 22 21 21 20 19 18 17 15 14 13 13 12 11 10 9 9 8 7 7 7 7 7 7 7 7 7 7 7 7 8 8 8 7 7 7 6 6
25 25 25 24 24 23 23 22 21 21 20 19 17 16 15 14 13 12 12 11 10 9 8 8 7 7 7 7 7 7 7 7 7 7 8 8 8 8 8 7 7 7 7 6
25 25 24 24 24 23 23 22 21 21 20 18 17 16 15 14 13 12 11 10 9 9 8 8 7 7 7 7 7 7 7 8 8 8 8 8 8 8 8 8 8 7 7 7
24 24 24 24 23 23 22 22 21 20 18 17 16 15 14 13 12 12 11 10 9 9 8 8 8 8 7 7 7 7 7 8 8 8 8 8 8 8 8 8 8 7 7 7
23 23 23 23 23 22 22 21 20 19 18 17 15 15 14 13 12 11 11 10 9 9 9 8 8 8 7 7 7 8 7 8 8 8 8 8 8 8 8 8 8 8 8 8
22 22 22 22 22 21 21 20 19 18 17 16 15 14 13 13 12 11 10 10 10 9 9 8 8 8 8 8 8 8 7 8 8 8 8 8 8 8 8 8 8 8 8 8
20 20 20 21 20 20 19 18 18 17 16 15 14 14 13 12 12 11 11 10 10 9 9 8 8 8 8 8 8 8 8 8 8 8 8 9 9 9 9 9 9 9 8 8
18 18 18 19 19 19 18 17 17 16 16 15 14 14 13 12 12 11 11 10 10 9 9 8 8 8 8 8 8 8 8 8 8 8 9 9 9 9 9 9 9 9 9 9
16 16 17 17 17 17 17 17 16 15 15 15 14 14 13 12 12 11 11 10 9 9 9 8 8 8 8 8 8 8 8 8 8 8 9 9 9 9 9 9 9 9 9 9
15 15 16 16 16 16 16 16 16 15 15 14 14 14 13 12 12 12 11 10 10 9 8 8 8 8 8 8 8 8 8 8 8 8 9 9 9 9 9 10 9 9 9 9
14 15 15 15 15 16 16 16 15 15 14 14 14 13 13 12 12 11 10 10 9 9 8 8 8 8 8 8 8 8 8 8 8 8 8 9 9 9 9 10 9 10 10 10
14 14 15 15 15 15 15 16 15 15 15 14 14 13 13 12 11 11 10 9 9 8 8 7 7 7 7 7 7 8 8 8 8 8 8 8 9 9 9 9 9 10 10 10
14 14 15 15 15 15 15 15 15 15 15 14 14 13 13 12 11 10 10 9 9 8 8 7 7 7 7 7 7 7 8 8 8 8 8 8 9 9 9 9 9 10 10 10
Wind_Speed
10 8 7 6 6 5 5 6 8 10 10 10 10 10 10 10 11 11 10 10 11 10 9 9 10 10 10 11 11 11 11 12 11 11 11 11 12 12 11 11 13 11 11 11
13 9 9 10 6 4 5 7 8 10 8 10 11 11 11 11 11 10 10 12 13 12 12 11 11 12 12 11 11 11 12 13 12 12 12 12 12 12 11 11 11 11 11 11
12 10 11 9 4 2 4 7 8 9 8 10 11 11 11 10 8 10 11 12 13 13 12 10 11 10 12 12 12 12 13 14 12 12 13 13 15 13 13 12 12 12 11 11
12 12 11 4 2 2 3 6 7 6 8 9 10 11 9 9 9 10 11 12 12 13 13 12 11 11 12 14 14 13 14 13 13 13 14 13 13 13 12 11 11 11 12 12
10 12 9 2 3 1 3 5 6 6 8 9 10 11 4 10 10 10 11 11 11 12 13 12 12 13 14 15 14 15 15 14 14 15 15 15 15 14 12 12 11 11 11 12
10 12 15 5 7 3 2 0 7 7 7 9 10 9 8 11 11 10 11 11 11 12 12 11 11 12 14 15 15 15 16 16 15 15 15 16 15 14 12 11 11 11 11 11
11 13 7 8 6 2 5 3 6 7 7 8 7 7 9 10 10 10 10 11 12 12 11 10 11 12 13 15 15 15 16 16 15 15 15 15 13 11 12 11 10 10 11 10
9 10 3 4 2 4 4 3 4 6 6 7 7 8 9 10 10 11 12 12 13 11 11 10 11 12 13 14 14 15 16 16 16 15 15 14 12 12 11 10 10 10 9 9
5 5 2 0 2 3 2 2 4 5 5 6 7 8 9 9 10 11 12 12 12 13 12 11 11 12 14 14 14 15 16 16 16 16 13 12 12 11 10 8 7 7 7 7
5 7 5 4 2 2 2 1 3 3 4 5 6 8 8 8 9 10 11 11 11 13 13 12 12 12 12 13 13 14 16 16 15 14 13 12 9 8 8 7 7 6 6 5
10 8 8 6 4 3 2 2 2 3 3 4 5 7 7 7 8 9 10 10 11 11 12 13 13 12 13 13 13 15 15 15 14 13 12 11 9 7 7 5 4 6 6 5
6 4 5 5 2 3 3 3 3 2 3 3 4 5 7 7 8 9 10 10 11 12 12 13 13 12 12 12 12 14 14 14 12 11 10 10 9 8 5 5 4 4 4 4
6 6 7 3 1 2 3 4 3 3 3 3 3 4 6 7 7 9 10 11 11 12 12 12 12 13 13 13 13 14 14 13 11 10 10 9 8 8 7 4 3 3 3 3
4 4 6 5 5 4 5 4 4 4 3 2 2 3 5 6 8 9 10 10 11 12 12 12 12 13 13 14 14 15 14 13 11 9 10 9 8 8 6 5 3 1 2 2
5 6 8 8 7 6 6 6 6 6 4 2 2 3 4 6 8 9 9 10 10 11 11 12 12 13 13 14 14 15 13 11 11 10 9 8 8 7 6 6 4 1 1 2
8 8 8 8 8 7 7 8 7 6 4 2 1 2 4 6 7 8 8 9 10 11 11 11 12 13 14 14 14 12 11 14 13 10 9 8 7 7 6 5 4 2 1 1
8 8 8 8 8 8 9 9 7 4 3 1 0 2 4 5 7 8 8 9 9 9 8 9 11 13 13 13 13 11 11 12 13 10 8 7 7 7 6 5 4 3 2 2
8 9 8 8 8 8 8 7 5 4 2 1 1 1 3 5 7 8 8 9 9 8 8 10 11 13 12 11 11 11 11 10 9 9 8 7 7 7 5 4 4 4 2 1
9 9 9 8 7 6 5 4 4 4 3 2 2 2 3 4 5 6 7 9 9 8 9 11 12 11 12 12 13 10 10 10 9 8 7 7 6 5 5 5 4 3 2 2
10 10 9 8 5 3 1 2 2 3 3 3 3 3 3 4 5 6 7 7 4 5 8 10 10 9 11 12 15 10 10 9 9 8 7 7 6 5 5 4 4 3 2 2
12 11 11 8 4 1 1 2 3 3 4 4 4 4 4 4 5 5 6 6 3 5 7 8 6 8 10 12 14 9 9 8 8 8 8 7 6 6 6 6 5 3 3 3
13 12 12 11 7 3 2 3 5 6 6 7 7 5 4 5 6 5 4 2 2 4 6 6 6 9 13 14 9 9 8 8 8 7 7 7 6 6 6 6 5 4 3 2
13 13 12 11 9 6 5 5 7 8 9 9 8 7 5 4 4 5 5 1 2 3 5 4 6 10 14 9 8 8 8 8 8 8 8 7 6 5 5 5 4 4 4 3
14 13 13 12 11 10 9 9 9 9 10 9 9 8 6 5 5 5 1 5 4 1 4 2 3 8 10 6 7 7 8 8 9 9 8 8 7 6 5 4 4 5 4 4
15 15 15 14 13 12 10 10 10 11 12 10 10 9 8 6 5 3 1 1 5 1 3 2 1 5 6 6 7 7 7 8 9 9 8 8 8 7 6 6 5 5 5 5
14 14 13 12 12 11 12 11 11 10 10 9 9 8 7 5 5 4 3 3 2 2 2 2 2 3 5 6 7 7 7 8 8 8 9 8 9 8 7 7 7 5 4 5
15 14 11 12 12 11 11 10 10 10 9 8 7 6 5 5 5 5 4 2 1 0 1 2 3 4 5 6 6 7 7 7 8 8 9 8 8 9 8 8 6 6 7 7
Wind_Direction
309 314 316 322 326 331 334 333 327 335 341 33 30 11 1 352 343 335 340 349 351 348 340 336 332 328 324 324 323 321 316 312 310 308 305 303 302 298 295 292 289 287 284 277
305 304 298 292 281 291 315 321 323 325 341 33 16 3 351 341 333 338 348 347 344 339 337 334 330 327 328 324 323 322 317 312 308 305 305 301 298 295 292 290 289 286 282 279
300 301 293 298 263 260 318 330 329 327 358 15 356 350 339 340 1 358 347 343 341 338 333 330 329 332 329 327 325 320 313 310 311 311 309 307 306 304 299 294 290 284 280 275
292 298 295 293 75 53 343 327 329 347 11 3 349 342 353 42 23 356 348 344 339 332 329 330 333 334 332 327 321 317 315 316 317 316 313 309 305 302 298 293 288 283 279 274
292 296 299 197 174 131 333 326 22 16 2 352 345 325 42 42 17 2 352 343 333 329 329 332 335 336 329 322 321 320 321 322 319 316 312 309 306 303 300 294 287 281 278 271
279 292 298 308 117 101 300 188 37 16 0 345 337 327 344 6 3 359 349 338 332 331 332 332 336 333 325 322 324 325 324 320 318 314 310 307 303 300 297 292 286 283 279 271
272 282 302 90 111 265 303 54 24 4 349 341 350 329 334 349 356 352 342 336 337 337 333 335 334 331 325 325 327 327 322 319 316 312 309 304 303 301 298 294 289 285 282 274
272 280 316 96 331 3 68 54 351 344 341 345 336 332 341 348 349 344 339 338 340 336 333 335 336 332 327 326 328 325 322 318 316 314 312 312 308 304 301 298 293 288 285 279
329 327 158 293 26 83 103 324 332 334 338 335 331 335 342 345 344 339 339 339 338 335 332 335 337 335 328 327 326 325 322 319 317 316 314 311 309 308 307 303 297 295 292 289
291 291 289 284 244 195 191 260 308 314 322 330 330 335 340 340 340 340 338 336 337 335 333 335 335 333 330 328 328 326 323 320 318 317 316 316 312 309 309 309 308 309 307 304
273 276 274 263 241 219 197 215 275 298 317 330 332 334 337 337 340 338 334 337 337 335 334 334 335 333 332 331 330 326 322 319 319 318 316 314 313 311 310 317 312 307 313 315
294 321 304 294 228 213 218 233 256 284 301 316 325 329 334 336 339 337 334 337 337 337 336 334 334 332 332 333 331 325 321 321 319 319 319 317 316 315 308 298 293 284 284 294
302 302 301 304 206 209 228 237 227 224 247 283 315 332 334 335 337 337 334 337 338 338 335 333 334 334 336 336 331 324 319 318 316 318 319 319 320 319 314 298 274 277 278 282
291 288 285 274 263 236 236 243 237 231 228 249 303 329 336 337 335 334 335 338 339 337 333 336 336 336 338 336 329 323 320 317 318 319 319 318 318 318 317 316 307 259 222 245
279 263 260 255 248 236 223 231 236 239 237 242 287 329 338 332 330 332 336 340 341 335 337 338 336 337 339 334 328 323 321 320 323 320 317 317 320 324 329 332 333 335 157 157
279 268 264 256 245 239 230 234 239 244 245 242 291 331 329 327 331 332 341 345 340 336 336 337 336 339 335 330 327 323 321 319 321 321 321 326 333 335 339 343 346 2 25 114
290 279 271 266 254 245 241 240 239 240 249 233 289 319 325 328 329 335 340 343 336 329 339 345 343 339 330 329 330 326 324 322 322 327 329 337 339 337 345 357 2 13 41 62
297 290 284 276 267 258 245 235 222 202 194 191 238 318 323 321 328 334 335 334 326 328 352 351 346 331 326 334 335 326 321 322 328 330 330 340 338 337 348 358 7 10 11 104
318 311 302 292 280 267 254 228 200 175 169 179 224 273 294 311 326 327 329 324 322 336 350 344 336 327 335 343 341 324 324 328 330 335 338 337 334 346 352 2 10 8 357 342
342 334 324 314 309 294 253 172 166 178 186 191 225 255 282 306 316 320 322 313 346 7 339 333 329 337 341 341 336 322 326 332 337 342 346 347 345 350 356 0 359 1 7 347
354 348 341 333 327 294 227 178 184 206 213 217 228 250 273 292 299 305 306 312 36 34 336 314 329 351 344 333 318 323 335 340 343 345 347 351 353 357 360 0 2 356 2 9
355 351 345 336 327 296 227 205 217 223 222 223 229 237 256 277 288 293 284 309 34 40 334 337 2 354 336 326 322 332 338 343 344 346 347 350 356 357 360 6 6 359 359 2
344 342 337 330 321 302 262 235 233 233 232 231 231 230 235 253 276 288 298 28 35 10 323 357 2 338 328 328 331 337 347 351 346 345 347 346 350 355 356 2 4 0 360 355
326 324 320 314 306 291 273 253 240 233 232 231 233 223 214 234 243 247 285 127 129 353 326 59 2 331 325 337 340 346 352 354 350 347 347 346 349 355 358 4 3 352 359 13
309 307 301 295 287 279 270 255 244 234 233 231 232 219 212 216 234 254 284 151 142 212 320 126 165 323 338 351 350 352 355 355 347 341 346 352 356 3 6 14 14 0 3 11
300 294 294 286 284 278 276 268 257 244 233 229 228 219 208 200 199 199 207 226 190 197 293 359 9 349 360 358 357 357 355 350 348 351 352 354 358 0 8 15 12 7 13 18
291 288 283 281 282 278 276 272 265 253 239 229 223 212 199 194 192 196 204 226 222 164 16 14 14 17 11 7 4 0 358 355 354 353 351 354 356 357 2 6 12 17 24 41
Height
1473 1469 1468 1470 1471 1472 1476 1480 1486 1485 1483 1483 1485 1487 1489 1490 1491 1491 1491 1491 1490 1489 1487 1485 1482 1479 1476 1472 1469 1465 1462 1458 1454 1451 1447 1443 1440 1437 1434 1432 1430 1428 1427 1426
1477 1470 1469 1470 1469 1471 1474 1476 1479 1481 1482 1482 1485 1487 1489 1489 1489 1489 1489 1489 1488 1486 1484 1481 1478 1475 1472 1468 1464 1460 1456 1452 1448 1445 1441 1437 1434 1430 1427 1424 1422 1420 1418 1417
1484 1472 1472 1477 1469 1471 1474 1474 1478 1483 1484 1483 1485 1488 1488 1488 1488 1489 1488 1487 1486 1484 1481 1478 1475 1471 1467 1463 1459 1455 1451 1447 1443 1439 1435 1431 1428 1424 1420 1417 1414 1411 1410 1409
1481 1480 1494 1476 1464 1467 1473 1475 1475 1477 1481 1484 1486 1487 1487 1487 1488 1488 1487 1485 1483 1481 1478 1475 1471 1467 1463 1459 1455 1451 1446 1442 1438 1434 1429 1425 1421 1417 1413 1410 1406 1403 1401 1400
1484 1485 1479 1471 1466 1469 1475 1478 1476 1480 1483 1485 1486 1486 1486 1487 1487 1486 1485 1483 1481 1478 1474 1471 1467 1463 1459 1455 1451 1446 1442 1437 1433 1428 1423 1418 1414 1410 1406 1402 1399 1396 1394 1392
1482 1489 1491 1471 1466 1469 1474 1481 1481 1481 1483 1485 1485 1486 1485 1486 1485 1484 1483 1480 1477 1474 1471 1467 1463 1459 1455 1451 1446 1442 1437 1432 1427 1422 1417 1412 1408 1404 1400 1396 1392 1390 1387 1385
1481 1483 1473 1467 1468 1470 1481 1487 1482 1482 1483 1484 1485 1487 1487 1485 1483 1482 1480 1478 1474 1471 1468 1464 1460 1456 1451 1447 1443 1438 1432 1427 1422 1417 1412 1407 1402 1398 1394 1390 1387 1384 1381 1379
1475 1482 1481 1468 1468 1473 1481 1480 1481 1482 1483 1484 1484 1484 1484 1483 1481 1480 1477 1475 1471 1468 1464 1460 1456 1452 1447 1443 1438 1433 1428 1422 1417 1412 1407 1403 1398 1393 1389 1385 1382 1379 1376 1374
1470 1474 1470 1468 1471 1474 1477 1479 1480 1481 1482 1482 1483 1483 1482 1481 1479 1477 1475 1472 1469 1465 1461 1457 1453 1449 1444 1439 1434 1429 1423 1418 1413 1408 1403 1398 1394 1389 1385 1382 1378 1375 1373 1370
1467 1464 1465 1466 1468 1471 1474 1476 1478 1479 1480 1481 1481 1480 1480 1478 1477 1475 1472 1469 1466 1462 1458 1454 1450 1445 1441 1435 1430 1425 1420 1414 1409 1404 1400 1395 1391 1387 1383 1379 1376 1373 1370 1368
1462 1462 1462 1464 1465 1468 1471 1474 1475 1477 1478 1479 1479 1478 1478 1476 1474 1472 1470 1466 1463 1459 1455 1451 1446 1442 1437 1432 1427 1422 1416 1411 1406 1402 1397 1392 1388 1385 1381 1377 1374 1371 1368 1366
1459 1459 1461 1462 1464 1466 1469 1471 1473 1475 1476 1476 1476 1476 1475 1474 1472 1470 1467 1464 1460 1456 1452 1448 1443 1439 1434 1429 1424 1419 1413 1408 1404 1399 1395 1391 1386 1382 1378 1376 1372 1369 1366 1365
1456 1458 1459 1460 1462 1465 1467 1469 1470 1472 1473 1474 1474 1473 1473 1471 1469 1467 1464 1461 1458 1454 1450 1445 1441 1436 1431 1426 1421 1416 1412 1407 1402 1398 1393 1389 1385 1381 1377 1374 1371 1368 1366 1364
1455 1457 1459 1460 1461 1463 1465 1466 1467 1469 1470 1470 1471 1470 1470 1469 1467 1465 1462 1459 1455 1451 1447 1443 1438 1433 1429 1424 1419 1414 1410 1405 1401 1396 1392 1387 1384 1380 1376 1373 1370 1367 1365 1364
1453 1455 1456 1457 1459 1460 1462 1463 1465 1466 1466 1467 1468 1467 1467 1466 1464 1462 1459 1456 1452 1449 1445 1440 1436 1431 1426 1421 1416 1412 1408 1404 1399 1395 1391 1387 1383 1379 1376 1373 1370 1368 1366 1364
1451 1452 1453 1454 1455 1456 1458 1459 1461 1462 1463 1464 1465 1465 1464 1463 1461 1459 1457 1453 1450 1446 1442 1438 1433 1429 1424 1419 1415 1411 1407 1403 1399 1394 1390 1386 1383 1380 1377 1374 1371 1369 1367 1365
1449 1449 1450 1451 1451 1453 1454 1455 1457 1458 1460 1461 1462 1462 1461 1460 1459 1457 1454 1451 1448 1444 1440 1436 1431 1426 1422 1418 1414 1410 1406 1402 1398 1394 1390 1387 1384 1380 1378 1375 1372 1370 1368 1366
1448 1448 1448 1448 1448 1449 1450 1451 1453 1456 1458 1459 1459 1459 1459 1458 1456 1454 1451 1448 1445 1442 1439 1434 1429 1424 1421 1417 1413 1409 1405 1402 1398 1394 1391 1387 1384 1381 1379 1376 1374 1371 1369 1367
1446 1446 1445 1445 1445 1446 1447 1449 1451 1453 1455 1456 1456 1456 1455 1455 1453 1451 1449 1446 1443 1440 1436 1431 1427 1423 1419 1416 1412 1408 1405 1402 1398 1395 1391 1388 1385 1383 1380 1377 1375 1373 1370 1369
1445 1444 1444 1444 1444 1445 1447 1448 1450 1451 1453 1453 1454 1453 1452 1451 1450 1448 1446 1444 1441 1437 1433 1429 1425 1421 1418 1414 1411 1407 1405 1402 1399 1395 1392 1389 1386 1384 1382 1379 1376 1374 1372 1370
1446 1444 1444 1443 1444 1445 1446 1447 1448 1449 1450 1451 1451 1450 1449 1448 1447 1445 1443 1441 1438 1434 1431 1427 1423 1420 1417 1413 1410 1407 1405 1402 1399 1397 1394 1391 1388 1386 1383 1381 1378 1376 1373 1371
1447 1445 1444 1444 1443 1444 1444 1445 1445 1446 1446 1447 1447 1446 1446 1445 1444 1442 1440 1438 1435 1431 1429 1426 1422 1419 1416 1413 1410 1407 1405 1403 1400 1398 1395 1393 1390 1388 1385 1383 1380 1377 1375 1373
1449 1446 1445 1444 1442 1442 1441 1441 1442 1443 1442 1442 1442 1441 1441 1440 1439 1438 1438 1435 1432 1429 1426 1423 1420 1417 1415 1412 1410 1407 1405 1403 1401 1399 1396 1394 1392 1390 1387 1385 1382 1380 1377 1375
1448 1446 1444 1442 1440 1439 1438 1436 1436 1437 1437 1436 1436 1436 1435 1435 1435 1434 1433 1431 1428 1426 1424 1421 1419 1416 1413 1411 1409 1407 1405 1403 1401 1399 1397 1395 1393 1391 1389 1387 1385 1382 1380 1378
1445 1442 1440 1438 1436 1434 1432 1431 1430 1430 1430 1430 1430 1430 1430 1430 1430 1430 1429 1428 1425 1424 1422 1420 1417 1415 1412 1410 1409 1406 1405 1403 1401 1400 1398 1396 1395 1393 1391 1389 1387 1385 1383 1381
1440 1437 1435 1432 1430 1428 1426 1425 1423 1423 1423 1423 1423 1424 1425 1425 1425 1426 1425 1425 1423 1421 1420 1418 1416 1413 1411 1409 1408 1406 1404 1403 1401 1400 1399 1398 1396 1395 1393 1391 1389 1388 1386 1384
1434 1431 1428 1425 1423 1421 1420 1418 1417 1416 1416 1416 1417 1418 1419 1420 1420 1421 1421 1421 1421 1420 1418 1416 1414 1412 1410 1408 1406 1405 1404 1402 1401 1400 1399 1398 1397 1396 1395 1394 1392 1391 1389 1388